Member area
Imprimable
Houffalize, 03-05/05/2019, BEL - Roc d'Ardenne
List of reports > Roc Night - Result
Search: Page: [1]
127 Entries
 
Complains are not accepted anymore. Results are final.
Category
PosNrNameAgeNATTeamTimeTkmMoy.PlaceNameCity
1.10001VAN HOOVELS Kevin34BELMTB TEAM LANGDO1:06:242:25 24.861homSINT-AMANDSBERG
2.10067FROMONT Yann38FRALES SANGLIERS D1:06:262:25 24.842homPONTOISE
3.5041LAURENT Axel25BELECW1:08:232:30 24.133homARLON
4.10069SARENS Bastien22BELTEAM VTT 3 CANA1:10:092:34 23.524homBERNISSART
5.10058CHABERT Hans40BELBE CHARP1:10:142:34 23.495homSINT-GENESIUS-RODE
6.10020JELMER Asjes32NLDGEEN1:10:202:34 23.466homASSENDELFT
7.5046DANEAU Antoine26BELTEAM BENOUBIKER1:10:262:34 23.437homBUVRINNES
8.10045VAN PUTTEN Derk-Jan28NLDATB VERENIGING 1:10:362:35 23.388homOLDEBROEK
9.10021HARLEZ Maxime21BELTEAM VTT 3 CANA1:10:512:35 23.299homTERTRE
10.10070VAN DEN BULKE Ken42BEL1:10:542:35 23.2810homOPVELP
11.5062CARA Boris25BEL1:11:012:35 23.2311homHOUFFALIZE
12.10007DEVOLDER Jonathan28BELTRUST MTB TEAM1:11:152:36 23.1612homKORTRIJK
13.5053WARNOTTE Jordan Marie39BEL1:11:172:36 23.1513homSTAVELOT
14.10065COTTIGNIES Vincent39BELHILAIRE XCM TEA1:11:182:36 23.1414homIZEGEM
15.10018SMETS Dirk32BELMTB TEAM LANGDO1:11:182:36 23.1415homMEERBEEK
16.5034GOUSSEAU Romain33FRALA HARDE SURVIL1:11:542:37 22.9516homTHIERS SUR THÈVE
17.5069TRILLET Jean-François Philomène33BEL1:11:592:38 22.9217homJALHAY
18.10002ISCHARD Frédéric36FRATEAM VELOCHANNE1:12:112:38 22.8618homPARIS
19.5063CARA Rémi21BEL1:12:442:39 22.6919homHOUFFALIZE
20.10022RAEMAEKERS Thomas35BELMTB RACING TEAM1:12:592:40 22.6120homOUD-HEVERLEE
21.10030AERTS Glenn28BELG&J CYCLING TEA1:13:332:41 22.4321homMEERHOUT
22.10038DESSAUX Romain25FRATEAM TSM1:13:452:41 22.3822homISNEAUVILLE
23.10064VANHAVERBEKE Kurt47BELMTBFUN4KIDS ACL1:13:542:42 22.3323homEVERGEM
24.10039MIEZE Sebastien35FRAHERMELINGHEM CY1:14:062:42 22.2724homCOQUELLES
25.10031MOONS Jenthe28BELG&J CYCLING TEA1:15:292:45 21.8625hom2440
26.10019AERTS Seppe19BELWAC TEAM1:15:352:45 21.8326homWECHELDERZANDE
27.10016ASJES Sven29NLDMTB NOORDWEST1:15:382:46 21.8227homALKMAAR
28.5010CABOCHE Antoine27FRAETOILE CYCLISTE1:15:432:46 21.7928homLES ATTAQUES
29.10051CAPOEN Mehdy35BELWTC DE BERGHAZE1:16:212:47 21.6129homRENINGELST
30.10062VAN RUITENBEEK Malaya37NLD1:16:242:47 21.6030homZOETERMEER
31.5029GUILBAUD Quentin26FRAVTT VALLÉE DE S1:16:292:47 21.5831homLE MESNIL ESNARD
32.10008VAN DER WOERD Heike46NLDFINENZO1:16:512:48 21.4732homAMSTELVEEN
33.5036BASIRE Simon28FRA1:17:592:51 21.1633homCANTELEU
34.10027CUPERS Renaud28BEL1:18:022:51 21.1434homJULÉMONT
35.10023VAN MOSSELVELDE Peter40BELHILAIRE XCM TEA1:18:042:51 21.1435homOOSTROZEBEKE
36.10066PROVENZANO Leroy29BELGEEN1:18:432:52 20.9636homBILZEN
37.5006DARCOURT Tony24FRATAC CYCLISME1:19:132:53 20.8337homLONGUENESSE
38.5011DELBECQ Brieux31BELLES SERCHNIES-G1:19:182:54 20.8138homKAIN
39.5007FOULON Julen34FRAECH1:19:492:55 20.6839homHAUT DE FRANCE
40.10052LEUPE Jari23BEL1:20:092:55 20.5940homJABBEKE
41.10014D’HOORE Giorgio25BELLAEREMANS EDNIN1:20:262:56 20.5241homKORTEMARK
42.5026RENARD Mathieu32FRALA HARDE SURVIL1:20:462:57 20.4342homPONTARMÉ
43.10049DECLEIR Gianni23BELWTC ZARRENHOF1:20:532:57 20.4043homKORTEMARK
44.10017WILMSEN Kevin28NLDZWC DTS1:20:592:57 20.3844homHAARLEM
45.5048DUBUISSON Louis15BELKTM HOUFFALIZE1:21:002:57 20.3745homHOUFFALIZE
46.10044LÉONARD Gilles28BELDÉCATHLON ARLON1:21:022:57 20.3646homHOUFFALIZE
47.10006REYMANN Louis23FRAE C FUMACIENNE1:21:332:58 20.2347homROCROI
48.10037SEVENOO Francis48BELVC DE STATIE1:21:582:59 20.1348homEEKLO
49.10063CLAESSENS Gregory33BELPAPEGAAIDUIKERS1:22:002:59 20.1249homWETTEREN
50.10003DALING Robin35NLDCYCLOTEAM.NL1:24:243:05 19.5550homMEIERIJSTAD
51.20008BAERT Claude36BEL1:24:283:05 19.5451homDEERLIJK
52.5012PETIQUEUX Antoin31BELLES SERCHNIES-G1:25:333:07 19.2952homWEZ-VELVAIN
53.10057LEFERE Thomas33BELAP3T1:26:013:08 19.1853homHEULE
54.10055LOOSVELD Tom45BEL1:26:013:08 19.1854homKORTRIJK
55.10026DE VUYST Eddy57BEL1:26:093:08 19.1555homZOTTEGEM
56.10004ALEXANDER Haemers31BELHILAIRE XCM TEA1:26:163:09 19.1356homWEVELGEM
57.5042ACKERMANS Yoran26BEL1:26:213:09 19.1157homOVERIJSE
58.10059ROOSE Bart43BEL1:26:263:09 19.0958homHALLE
59.5023STEPHANY Mark Steven36LUXLES DÉCHAINÉS D1:26:513:10 19.0059homKLEING ELCHERT
60.10010DE WAELE Alessandro28BELGAVERZICHT BE O1:28:513:14 18.5760homKRUISHOUTEM
61.10011DOMINGUES Philippe53FRABCNG1:29:263:16 18.4561homNOISY LE GRAND
62.5070SARENS Sylvain Daniel33BEL1:31:093:19 18.1062homBERNISSART
63.10036LENAERTS Koen49BELMTB TEAM NO EXC1:31:573:21 17.9563homLILLE
64.5056LIVET Jean-François Marie35BEL1:32:033:21 17.9364homMALMEDY
65.20002RUYTERS Bart39BELRUYKKES1:32:143:22 17.8965homOUTGAARDEN
66.20004DESMET Kristof36BEL1:32:193:22 17.8766homTIENEN
67.20005VERCRUYSSE Franjo29BEL1:33:013:23 17.7467homHARELBEKE
68.10033BRUNINX Ruben33BELVELOON1:33:043:24 17.7368homVOORT
69.20015FCAUWENBERGH Katja44BEL1:33:133:24 17.701damOPVELP
70.5003ROSKAM Cédric27BELJANS BOIS1:33:203:24 17.6869homLIEGE
71.5052GASPARD Florent16BELKTM HOUFFALIZE1:33:553:25 17.5770homHOUFFALIZE
72.10053BRUYNEEL Brecht35BELAQUA PROTECT 3 1:34:583:28 17.3871homDEERLIJK
73.10005PUECHBERTY Feel56FRAIDFR - ASCFF1:35:113:28 17.3472homBRY SUR MARNE
74.5055CLOSSEN Francis34BEL1:35:243:29 17.3073homSAMREE
75.5047VERRONS Sébastien27FRA1:36:203:31 17.1374homSANGHEN
76.10056DEWULF Matthias28BELAP3T1:36:223:31 17.1375homHARELBEKE
77.10028HARRIS Pete62GBR1:37:013:32 17.0176homBELPER, DERBYSHIRE
78.20007FJAMES Mandie47GBRZEPNAT1:37:033:32 17.002damDERBY
79.5066GEARDMER Laurent50FRA1:40:003:39 16.5077homSAINT THIBAULT DES VIGNES
80.5045LANGEDOCK Mathieu35BELDECOCK-VANEYCK-1:40:073:39 16.4878homSINT-ELOOIS-WINKEL
81.10012BERVOETS Philippe40BELINDIVIDUEEL1:41:053:41 16.3279homROTSELAAR
82.20013LE MAYEUR Guillaume34BEL1:41:153:41 16.3080homSCHAERBEEK
83.5013QUENTIN Leboeuf30BELLES SERCHNIES-G1:41:213:42 16.2881homWILLEMEAU
84.10029LAPPARRA Sebastien48FRAAS CREDIT FONCI1:41:253:42 16.2782homVINCENNES
85.5001HYENNE Jean -Christophe49FRA1:42:073:43 16.1683homTEMPLEUVE
86.5020MORA Cyrille51FRAASL VARREDDES1:43:403:47 15.9284homLA FERTÉ SOUS JOUARRE
87.20009VERVY Quentin32BEL1:44:093:48 15.8485homSOMZÉE
88.10050ACX Kris43BELBOSKANTRIJDERS1:44:403:49 15.7786homLENDELEDE
89.10048GHEYSENS Koen44BELBOSKANTRIJDERS1:44:413:49 15.7687homPASSENDALE
90.5032COUQUELET Pierre55BEL1:45:043:50 15.7188homTILFF
91.10071HEYLEN Thibault29BEL1:45:253:50 15.6589homHARELBEKE
92.5028BONNET Kevin30FRACVCANTALOUP1:46:243:53 15.5190homLE GRAND QUEVILLY
93.10046MARINUS Roy34NLDAZVD1:48:203:57 15.2391homAMSTERDAM
94.10047KLEIJN Chris37NLDZWC-DTS1:48:213:57 15.2392homKOOG AAN DE ZAAN
95.5014DUCKMAN Sébastien42FRALES FOUS DU GUI1:49:023:58 15.1393homBERNES SUR OISE
96.5024NATTIER Olivier38FRALES FOUS DU GUI1:49:043:58 15.1394homST CRÉPIN IBOUVILLERS
97.5016MAHLER-PIERSON Mickael42FRALES FOUS DU GUI1:49:043:58 15.1395homCHAMPAGNE SUR OISE
98.10024BARDYN Mike34BELMTB-C MOSQUITOE1:49:494:00 15.0396homBRUGGE
99.5044SZYMCZAK Yannick34FRA1:50:244:01 14.9597homHESDIGNEUL LES BETHUNE
100.5035RIQUIER Christophe49FRA1:52:284:06 14.6798homPARMAIN
101.10025WITTEVRONGEL Mathias31BEL1:52:434:06 14.6499homGRAMMENE
102.5030MEEUS Jean Pierre59BEL1:54:234:10 14.43100homBIERBEEK
103.20010DE RYCKER Roeland29BEL1:55:004:11 14.35101homDEURNE
104.20011FVAN DE VOORDE Lies29BEL1:55:024:11 14.353damDEURNE
105.5064THIERCELIN Benjamin34FRA1:55:594:14 14.23102homSIMENCOURT
106.5065WATTEEUW Denis32FRA1:55:594:14 14.23103homRUMEGIES
107.5054VAN VEEN Tjeerd27NLD1:57:524:18 14.00104homALKMAAR
108.10040PEETERS Willem53BEL'T VETTIG TANDW1:58:134:18 13.96105homHEIST OP DEN BERG
109.10041DILLEN Nikolaas52BEL'T VETTIG TANDW1:58:164:19 13.95106homRANST
110.20003CAILLARD Gilles62FRAUSMBM1:58:204:19 13.94107homBOUFFEMONT
111.10043PERDAEN Ronny42BEL'T VETTIG TANDW1:58:524:20 13.88108homKALMHOUT
112.10042KEYSERS Nico43BEL'T VETTIG TANDW1:58:544:20 13.88109homOOSTMALLE
113.5049FSERVAIS Mélanie40BELCHRONORACE2:01:054:25 13.634damFRANCORCHAMPS
114.5068VINCENT Xavier44FRA2:02:584:29 13.42110homMEZY MOULINS
115.5018LEGRAND Johan31FRA2:03:494:31 13.33111homVULAINES
116.5021LAURENT Jérémy32FRA2:05:364:35 13.14112homMARIGNY LE CHATEL
117.5002NUSSELEIN Eric38NLD2:16:454:59 12.07113homARNHEM
118.10034MUNRO Mark34NLD2:16:464:59 12.07114homGELDERLAND
119.5005STEURS Yves51BEL2:17:355:01 11.99115homTIELT-WINGE
120.5037BOLEN Marc54BEL2:32:295:33 10.82116homMERDORP
121.5038DENIS Vincent44BEL2:32:515:34 10.80117homMERDORP
122.5039DEMEFFE Christian54BEL2:39:175:48 10.36118homMERDORP
123.5027DEFLESSELLES Mickaël38FRA2:44:576:00 10.00119homREXPOEDE
DNF5051DENIZOT Vincent33FRAhomSAINT ANDRE LEZ LILLE
DNF5043JONKEAU Antoine18BELTEAM 123VTThomHOUFFALIZE
DNF10015VD WETERINGE BUIJS Frank53NLDBIKE ACTION ALKhomSINT PANCRAS
DNF5061WATERLOT Bruno48FRAhomTOURCOING
DNF: did not finish; DSQ: disqualified; Speed in km/h
Page: [1]